La Push, WA

2:31 PM PDT on August 28, 2016 (GMT -0700)
Quillayute

Weather History for KUIL - March, 2014

Change the Weather History Date:

Tuesday, March 25, 2014

  Actual Average Record
Temperature  
Mean Temperature 48 °F 45 °F  
Max Temperature 51 °F 52 °F 66 °F (1969)
Min Temperature 44 °F 38 °F 25 °F (1996)
Degree Days  
Heating Degree Days 17 20  
Month to date heating degree days 481 528  
Since 1 July heating degree days 3675 4373  
Cooling Degree Days 0 0  
Month to date cooling degree days 0 0  
Year to date cooling degree days 0 0  
Moisture  
Dew Point 47 °F    
Average Humidity 96    
Maximum Humidity 100    
Minimum Humidity 92    
Precipitation  
Precipitation 1.04 in 0.34 in 2.49 in (2015)
Month to date precipitation 14.23 8.86  
Year to date precipitation 36.80 33.82  
Sea Level Pressure  
Sea Level Pressure 29.54 in    
Wind  
Wind Speed 11 mph (South)    
Max Wind Speed 25 mph    
Max Gust Speed 36 mph    
Visibility 3 miles    
Events Fog , Rain    
T = Trace of Precipitation, MM = Missing Value Source: NWS Daily Summary

Daily Weather History Graph

Daily Weather History Graph

Search for Another Location

Airport or City:

Trip Planner

Search our weather history database for the weather conditions in past years. The results will help you decide how hot, cold, wet, or windy it might be!

Date:

Astronomy

Mar. 25, 2014 Rise Set
Actual Time 7:10 AM PDT 7:38 PM PDT
Civil Twilight 6:39 AM PDT 8:09 PM PDT
Nautical Twilight 6:02 AM PDT 8:46 PM PDT
Astronomical Twilight 5:24 AM PDT 9:24 PM PDT
Moon 3:59 AM PDT (3/25) 1:54 PM PDT (3/25)
Length of Visible Light 13h 29m
Length of Day
12h 27m
Waning Crescent, 31% of the Moon is Illuminated
Mar 25
Waning Crescent
Mar 30
New
Apr 7
First Quarter
Apr 15
Full
Apr 22
Last Quarter

Hourly Weather History & Observations

Time (PDT) Temp. Windchill Dew Point Humidity Pressure Visibility Wind Dir Wind Speed Gust Speed Precip Events Conditions
12:53 AM 48.0 °F - 44.1 °F 86% 29.78 in 8.0 mi SE 9.2 mph - 0.00 in Rain Light Rain
1:53 AM 48.9 °F - 45.0 °F 86% 29.77 in 6.0 mi Variable 3.5 mph - 0.01 in   Overcast
2:11 AM 48.0 °F - 46.0 °F 93% 29.77 in 1.8 mi SSE 9.2 mph - 0.02 in Rain Rain
2:16 AM 48.0 °F - 46.0 °F 93% 29.77 in 2.0 mi SSE 9.2 mph - 0.03 in Rain Light Rain
2:24 AM 48.0 °F - 46.0 °F 93% 29.76 in 4.0 mi SE 4.6 mph - 0.03 in Rain Light Rain
2:32 AM 46.9 °F - 46.0 °F 97% 29.76 in 4.0 mi SSE 5.8 mph - 0.03 in Rain Light Rain
2:53 AM 48.0 °F - 46.9 °F 96% 29.75 in 5.0 mi South 4.6 mph - 0.03 in Rain Light Rain
3:06 AM 48.0 °F - 46.9 °F 96% 29.75 in 5.0 mi SSE 3.5 mph - 0.00 in Rain Light Rain
3:14 AM 48.0 °F - 46.9 °F 96% 29.74 in 2.5 mi Calm Calm - 0.01 in Rain Light Rain
3:21 AM 48.0 °F - 46.9 °F 96% 29.74 in 3.0 mi Variable 3.5 mph - 0.01 in Rain Light Rain
3:37 AM 48.0 °F - 46.9 °F 96% 29.72 in 2.5 mi ESE 5.8 mph - 0.03 in Rain Light Rain
3:45 AM 48.0 °F - 46.9 °F 96% 29.72 in 5.0 mi Calm Calm - 0.03 in Rain Light Rain
3:53 AM 48.0 °F - 46.9 °F 96% 29.72 in 5.0 mi Variable 3.5 mph - 0.03 in Rain Light Rain
4:04 AM 48.9 °F - 46.9 °F 93% 29.71 in 2.0 mi Variable 5.8 mph - 0.02 in Rain Rain
4:17 AM 48.9 °F - 46.9 °F 93% 29.71 in 2.5 mi South 6.9 mph - 0.03 in Rain Rain
4:27 AM 48.0 °F - 46.9 °F 96% 29.71 in 2.5 mi Variable 3.5 mph - 0.05 in Rain Rain
4:39 AM 48.0 °F - 46.9 °F 96% 29.69 in 4.0 mi SE 5.8 mph - 0.07 in Rain Light Rain
4:53 AM 48.9 °F - 46.9 °F 93% 29.68 in 5.0 mi SE 9.2 mph - 0.08 in Rain Light Rain
5:53 AM 48.9 °F - 46.9 °F 93% 29.65 in 8.0 mi SSE 12.7 mph 20.7 mph 0.00 in   Overcast
6:12 AM 50.0 °F - 46.9 °F 89% 29.64 in 8.0 mi SSE 10.4 mph 20.7 mph N/A   Overcast
6:53 AM 48.9 °F - 46.9 °F 93% 29.63 in 3.0 mi SSE 12.7 mph 20.7 mph 0.01 in Rain Light Rain
7:02 AM 48.9 °F - 46.9 °F 93% 29.62 in 3.0 mi SSE 12.7 mph 19.6 mph 0.01 in Rain Light Rain
7:12 AM 48.0 °F - 46.9 °F 96% 29.62 in 4.0 mi SSE 12.7 mph 24.2 mph 0.01 in Rain Light Rain
7:53 AM 48.0 °F - 45.0 °F 89% 29.59 in 7.0 mi SSE 9.2 mph 18.4 mph 0.01 in   Mostly Cloudy
8:53 AM 48.9 °F - 45.0 °F 86% 29.57 in 7.0 mi SSE 11.5 mph 21.9 mph 0.01 in Rain Light Rain
9:53 AM 48.9 °F - 46.0 °F 90% 29.54 in 5.0 mi SE 16.1 mph 21.9 mph 0.01 in Rain Light Rain
10:30 AM 48.9 °F - 46.9 °F 93% 29.54 in 2.0 mi SSE 11.5 mph 20.7 mph 0.02 in Rain Light Rain
10:40 AM 48.0 °F - 46.9 °F 96% 29.54 in 1.8 mi SE 10.4 mph 23.0 mph 0.02 in Rain Light Rain
10:48 AM 48.2 °F - 46.4 °F 93% 29.54 in 2.5 mi SSE 15.0 mph 24.2 mph 0.03 in Rain Rain
10:53 AM 48.0 °F - 46.0 °F 93% 29.54 in 2.5 mi SSE 15.0 mph 24.2 mph 0.04 in Rain Light Rain
11:10 AM 48.0 °F - 46.0 °F 93% 29.53 in 3.0 mi SSE 11.5 mph 21.9 mph 0.02 in Rain Light Rain
11:24 AM 48.0 °F - 46.0 °F 93% 29.53 in 2.5 mi SSE 12.7 mph 23.0 mph 0.04 in Rain Light Rain
11:44 AM 48.0 °F - 46.0 °F 93% 29.52 in 3.0 mi SE 11.5 mph - 0.07 in Rain Light Rain
11:53 AM 48.0 °F - 46.0 °F 93% 29.52 in 3.0 mi SE 12.7 mph 23.0 mph 0.08 in Rain Light Rain
12:10 PM 48.0 °F - 46.9 °F 96% 29.52 in 2.0 mi SE 12.7 mph 21.9 mph 0.00 in Rain Light Rain
12:20 PM 48.0 °F - 46.0 °F 93% 29.52 in 5.0 mi SSE 8.1 mph 25.3 mph 0.00 in Rain Light Rain
12:33 PM 48.0 °F - 46.0 °F 93% 29.51 in 6.0 mi SE 11.5 mph 24.2 mph 0.00 in   Overcast
12:53 PM 48.9 °F - 46.9 °F 93% 29.51 in 7.0 mi SSE 8.1 mph - 0.00 in Rain Light Rain
1:26 PM 50.0 °F - 48.0 °F 93% 29.50 in 6.0 mi South 11.5 mph 19.6 mph 0.00 in   Overcast
1:34 PM 50.0 °F - 48.0 °F 93% 29.50 in 5.0 mi South 9.2 mph 19.6 mph 0.00 in Rain Light Rain
1:53 PM 48.9 °F - 46.9 °F 93% 29.49 in 3.0 mi South 10.4 mph 25.3 mph 0.00 in Rain Light Rain
2:11 PM 50.0 °F - 48.0 °F 93% 29.48 in 3.0 mi South 12.7 mph 25.3 mph 0.00 in   Overcast
2:13 PM 50.0 °F - 48.0 °F 93% 29.48 in 2.5 mi South 11.5 mph 25.3 mph 0.00 in Rain Light Rain
2:15 PM 50.0 °F - 48.0 °F 93% 29.48 in 2.5 mi South 11.5 mph 25.3 mph 0.01 in Rain Light Rain
2:28 PM 50.0 °F - 48.0 °F 93% 29.46 in 3.0 mi SSW 15.0 mph 27.6 mph 0.01 in Rain Light Rain
2:30 PM 50.0 °F - 48.0 °F 93% 29.47 in 3.0 mi South 12.7 mph 27.6 mph 0.01 in Rain Light Rain
2:37 PM 50.0 °F - 48.0 °F 93% 29.47 in 2.0 mi South 10.4 mph 24.2 mph 0.01 in Rain Light Rain
2:39 PM 48.9 °F - 48.0 °F 97% 29.47 in 1.5 mi South 13.8 mph 24.2 mph 0.01 in Rain Rain
2:46 PM 48.0 °F - 46.0 °F 93% 29.46 in 1.0 mi South 16.1 mph 26.5 mph 0.03 in Rain Rain
2:53 PM 48.0 °F - 46.0 °F 93% 29.46 in 1.0 mi SSW 11.5 mph 31.1 mph 0.07 in Rain Rain
3:01 PM 48.0 °F - 46.9 °F 96% 29.45 in 1.5 mi North - - 0.01 in Rain Rain
3:05 PM 48.0 °F - 46.9 °F 96% 29.46 in 1.2 mi North - - 0.03 in Rain Rain
3:11 PM 48.0 °F - 46.9 °F 96% 29.46 in 0.8 mi SSW 12.7 mph 23.0 mph 0.07 in Rain Heavy Rain
3:19 PM 48.0 °F - 46.0 °F 93% 29.45 in 1.0 mi South 13.8 mph 27.6 mph 0.13 in Rain Rain
3:23 PM 48.0 °F - 46.9 °F 96% 29.45 in 1.5 mi South 11.5 mph 27.6 mph 0.14 in Rain Rain
3:32 PM 48.0 °F - 46.0 °F 93% 29.44 in 1.8 mi South 13.8 mph 26.5 mph 0.16 in Rain Rain
3:36 PM 48.0 °F - 46.0 °F 93% 29.44 in 1.8 mi South 9.2 mph 26.5 mph 0.17 in Rain Light Rain
3:49 PM 48.2 °F - 46.4 °F 93% 29.44 in 0.8 mi South 13.8 mph 29.9 mph 0.21 in Rain Heavy Rain
3:53 PM 48.0 °F - 46.9 °F 96% 29.45 in 0.8 mi South 18.4 mph 27.6 mph 0.22 in Rain Rain
4:02 PM 46.9 °F - 46.0 °F 97% 29.44 in 0.5 mi SSW 17.3 mph 36.8 mph 0.11 in Fog , Rain Heavy Rain
4:09 PM 46.9 °F - 46.9 °F 100% 29.44 in 1.0 mi SSW 5.8 mph 24.2 mph 0.16 in Rain Rain
4:12 PM 46.9 °F - 46.9 °F 100% 29.43 in 1.5 mi SSW 9.2 mph - 0.17 in Rain Rain
4:17 PM 48.0 °F - 46.9 °F 96% 29.43 in 1.2 mi South 12.7 mph 20.7 mph 0.18 in Rain Rain
4:23 PM 48.0 °F - 48.0 °F 100% 29.43 in 0.8 mi South 11.5 mph 20.7 mph 0.22 in Rain Rain
4:29 PM 48.9 °F - 48.0 °F 97% 29.43 in 1.8 mi South 16.1 mph 27.6 mph 0.22 in Rain Light Rain
4:36 PM 48.9 °F - 48.0 °F 97% 29.43 in 2.5 mi South 15.0 mph 28.8 mph 0.24 in Rain Rain
4:51 PM 48.2 °F - 48.2 °F 100% 29.43 in 1.5 mi South 11.5 mph 28.8 mph 0.26 in Rain Rain
4:52 PM 48.9 °F - 48.0 °F 97% 29.43 in 1.2 mi South 13.8 mph 28.8 mph 0.26 in Rain Rain
5:01 PM 48.9 °F - 48.0 °F 97% 29.43 in 1.8 mi South 12.7 mph 28.8 mph 0.01 in Rain Light Rain
5:08 PM 48.9 °F - 48.0 °F 97% 29.43 in 1.8 mi South 15.0 mph 26.5 mph 0.01 in Rain Light Rain
5:10 PM 48.9 °F - 48.0 °F 97% 29.43 in 2.0 mi South 13.8 mph 26.5 mph 0.01 in Rain Light Rain
5:14 PM 48.9 °F - 48.0 °F 97% 29.43 in 3.0 mi South 18.4 mph 26.5 mph 0.01 in Rain Light Rain
5:18 PM 48.9 °F - 48.0 °F 97% 29.43 in 1.8 mi South 17.3 mph 24.2 mph 0.01 in Rain Light Rain
5:26 PM 48.9 °F - 48.0 °F 97% 29.43 in 1.2 mi SSW 12.7 mph 24.2 mph 0.02 in Rain Light Rain
5:29 PM 48.9 °F - 48.0 °F 97% 29.43 in 2.0 mi SSW 16.1 mph 23.0 mph 0.02 in Rain Light Rain
5:37 PM 48.9 °F - 48.0 °F 97% 29.43 in 4.0 mi SSW 15.0 mph 26.5 mph 0.02 in   Mostly Cloudy
5:53 PM 48.0 °F - 48.0 °F 100% 29.44 in 4.0 mi SSW 10.4 mph 20.7 mph 0.02 in   Mostly Cloudy
6:21 PM 48.9 °F - 48.0 °F 97% 29.44 in 4.0 mi SSW 13.8 mph 21.9 mph 0.00 in   Overcast
6:33 PM 48.9 °F - 48.0 °F 97% 29.45 in 2.5 mi SSW 11.5 mph 18.4 mph 0.00 in Rain Light Rain
6:44 PM 48.9 °F - 48.0 °F 97% 29.45 in 3.0 mi SSW 12.7 mph 18.4 mph 0.00 in   Overcast
6:53 PM 48.0 °F - 46.9 °F 96% 29.45 in 3.0 mi SSW 9.2 mph 19.6 mph 0.00 in Rain Light Rain
7:53 PM 48.0 °F - 46.9 °F 96% 29.46 in 2.5 mi SSW 11.5 mph - 0.00 in Rain Rain
8:01 PM 46.0 °F 38.0 °F 46.0 °F 100% 29.47 in 1.5 mi WSW 21.9 mph 33.4 mph 0.03 in Rain Light Rain
8:06 PM 46.0 °F 38.5 °F 45.0 °F 96% 29.47 in 3.0 mi WSW 19.6 mph 33.4 mph 0.03 in Rain Light Rain
8:34 PM 45.0 °F 36.6 °F 44.1 °F 97% 29.51 in 3.0 mi WSW 21.9 mph 28.8 mph 0.04 in Rain Rain
8:38 PM 45.0 °F 36.9 °F 43.0 °F 93% 29.52 in 3.0 mi West 20.7 mph 29.9 mph 0.04 in Rain Rain
8:53 PM 45.0 °F 38.9 °F 43.0 °F 93% 29.54 in 6.0 mi SW 12.7 mph 23.0 mph 0.06 in Rain Light Rain
9:53 PM 46.0 °F 43.9 °F 44.1 °F 93% 29.56 in 6.0 mi SSW 4.6 mph - 0.00 in   Overcast
10:02 PM 46.0 °F 43.9 °F 45.0 °F 96% 29.56 in 3.0 mi Variable 4.6 mph - 0.00 in Rain Light Rain
10:21 PM 46.0 °F 41.0 °F 45.0 °F 96% 29.56 in 5.0 mi SSW 10.4 mph - 0.02 in   Overcast
10:31 PM 46.9 °F - 45.0 °F 93% 29.57 in 5.0 mi SSW 10.4 mph - 0.02 in   Overcast
10:48 PM 46.4 °F 41.5 °F 44.6 °F 93% 29.57 in 3.0 mi WSW 10.4 mph - 0.03 in Rain Light Rain
10:53 PM 46.0 °F 41.0 °F 44.1 °F 93% 29.58 in 2.0 mi SW 10.4 mph 25.3 mph 0.04 in Rain Heavy Rain
11:01 PM 45.0 °F 39.7 °F 43.0 °F 93% 29.57 in 3.0 mi SW 10.4 mph 20.7 mph 0.02 in Rain Light Rain
11:30 PM 45.0 °F 42.6 °F 44.1 °F 97% 29.57 in 6.0 mi SSW 4.6 mph - 0.02 in   Overcast
11:53 PM 46.0 °F 41.9 °F 45.0 °F 96% 29.57 in 5.0 mi SSW 8.1 mph - 0.02 in   Overcast